LANDSAT 5 1 14780U 84021A 10077.18638927 .00000079 00000-0 27504-4 0 6124 2 14780 98.2070 146.4413 0002519 5.1038 355.0186 14.57113390385283 SPOT 2 1 20436U 90005A 10076.66905949 .00000217 00000-0 46826-4 0 767 2 20436 98.6354 161.9874 0155379 178.3982 181.7760 14.61954975 45501 ERS-2 1 23560U 95021A 10077.18720113 .00000381 00000-0 15742-3 0 86 2 23560 98.5274 153.3368 0001468 104.7323 255.4057 14.32256063779431 RADARSAT-1 1 23710U 95059A 10077.09245697 .00000027 00000-0 27498-4 0 1364 2 23710 98.5801 84.9977 0001127 91.7056 357.6175 14.29982225749951 TOMS EP 1 23940U 96037A 10075.73336594 .00000069 00000-0 27342-4 0 3021 2 23940 97.9937 300.6811 0028698 231.1572 128.7061 14.52294856728982 MIDORI (ADEOS) 1 24277U 96046A 10076.45279389 -.00000063 00000-0 -83567-5 0 3054 2 24277 98.4052 35.4601 0001292 140.7832 219.3425 14.28610725707949 ORBVIEW 2 (SEASTAR) 1 24883U 97037A 10075.97314759 .00000031 00000-0 16515-4 0 817 2 24883 98.3719 207.1088 0002543 78.7822 281.3649 14.60029198672242 IRS-1D 1 24971U 97057A 10077.14443590 .00000208 00000-0 89516-4 0 2127 2 24971 98.2077 104.5085 0053827 196.1645 163.7839 14.32968692652064 TRMM 1 25063U 97074A 10077.07805130 .00008416 00000-0 11845-3 0 3087 2 25063 34.9661 326.9165 0000914 261.8842 98.1733 15.55824446702783 SPOT 4 1 25260U 98017A 10077.08573540 .00000053 00000-0 45000-4 0 315 2 25260 98.6634 149.8006 0001341 121.0408 239.0900 14.20048477621207 FASAT B 1 25395U 98043B 10077.08614382 .00000051 00000-0 39533-4 0 6939 2 25395 98.3105 98.8223 0003628 114.3653 245.7909 14.24379476607439 TECHSAT 1B (GO-32) 1 25397U 98043D 10077.05526959 .00000033 00000-0 32670-4 0 1389 2 25397 98.3150 89.5170 0001887 138.2958 221.8350 14.23173848607087 LANDSAT 7 1 25682U 99020A 10077.08421901 .00000055 00000-0 22301-4 0 7106 2 25682 98.2190 146.5809 0001255 101.5860 258.5480 14.57106390580967 KITSAT 3 1 25756U 99029A 10076.36050512 -.00000016 00000-0 78613-5 0 1529 2 25756 98.6497 282.8497 0014873 64.3980 295.8738 14.52567079572814 DLR-TUBSAT 1 25757U 99029B 10077.21123974 -.00000078 00000-0 -77068-5 0 6930 2 25757 98.6816 274.4110 0015444 89.0955 271.1995 14.50856886572446 IRS-P4 (OCEANSAT 1) 1 25758U 99029C 10076.99402698 .00000043 00000-0 21905-4 0 3955 2 25758 98.2687 172.5061 0001359 100.1933 259.9529 14.50869067572568 QUIKSCAT 1 25789U 99034A 10076.59134000 .00000006 00000-0 20562-4 0 6679 2 25789 98.6322 267.0998 0000691 115.6122 244.5130 14.26801263559447 IKONOS 2 1 25919U 99051A 10077.12392123 -.00000018 00000-0 55743-5 0 9830 2 25919 98.1057 153.3451 0000912 69.6695 290.4620 14.64447813560155 CBERS 1 (ZY 1A) 1 25940U 99057A 10076.01476995 .00000034 00000-0 26582-4 0 5322 2 25940 98.1682 71.3584 0005018 358.1175 2.0002 14.34479966545920 TERRA 1 25994U 99068A 10077.10187901 .00000079 00000-0 27685-4 0 6055 2 25994 98.2102 153.0467 0000618 97.4477 262.6805 14.57112153545049 ARIRANG 1 (KOMPSAT-1) 1 26032U 99070A 10077.12872926 .00000190 00000-0 43296-4 0 7345 2 26032 97.8852 312.4034 0006411 86.8806 273.3130 14.65679264547611 EO-1 1 26619U 00075A 10077.12232163 .00000488 00000-0 10643-3 0 9729 2 26619 98.1417 145.5732 0010703 163.6198 196.5413 14.62087718496291 SAC C 1 26620U 00075B 10075.97616567 -.00000025 00000-0 39079-5 0 9517 2 26620 97.8852 99.4947 0000979 101.6504 258.4768 14.56603200495387 EROS A1 1 26631U 00079A 10077.10207429 .00003053 00000-0 15009-3 0 7373 2 26631 97.4533 144.1195 0010490 110.3340 336.9627 15.18739947516082 QUICKBIRD 2 1 26953U 01047A 10077.15437743 .00004790 00000-0 12200-3 0 423 2 26953 97.1154 151.9285 0001394 63.4414 327.1372 15.40021088472775 TES 1 26957U 01049A 10077.22615676 .00000698 00000-0 58879-4 0 279 2 26957 97.6348 154.4676 0024803 334.6537 25.3481 15.01155387460312 JASON 1 1 26997U 01055A 10075.93493007 -.00000038 00000-0 10000-3 0 1585 2 26997 66.0408 223.9728 0007224 277.0305 82.9874 12.80931956386976 METEOR-3M 1 27001U 01056A 10076.71446662 -.00000031 00000-0 13185-4 0 6020 2 27001 99.2285 285.7967 0014303 47.0352 313.1990 13.68714912412930 BADR-B 1 27003U 01056C 10077.16851024 -.00000026 00000-0 18240-4 0 4719 2 27003 99.2178 292.8168 0020844 46.8323 313.4561 13.70103164413478 MAROC-TUBSAT 1 27004U 01056D 10076.79720878 .00000023 00000-0 74373-4 0 4670 2 27004 99.2129 291.7088 0020578 48.2918 311.9986 13.70031629413395 ENVISAT 1 27386U 02009A 10077.09588198 .00000004 00000-0 17552-4 0 8773 2 27386 98.5466 145.5185 0001004 97.9793 262.1513 14.32248584420708 SPOT 5 1 27421U 02021A 10077.13390169 .00000046 00000-0 42374-4 0 9475 2 27421 98.7396 152.3231 0000798 84.0724 2.3653 14.20025926408042 AQUA 1 27424U 02022A 10076.09273679 .00000226 00000-0 60214-4 0 5850 2 27424 98.2000 18.9649 0001583 61.2838 298.8554 14.57125192418508 HAIYANG-1A 1 27430U 02024A 10077.19293366 .00000117 00000-0 62073-4 0 2992 2 27430 98.4400 140.6241 0008748 357.3650 2.7498 14.29745396409224 ALSAT 1 1 27559U 02054A 10077.08796008 .00000131 00000-0 30164-4 0 2796 2 27559 97.9027 308.7467 0022915 200.3781 159.6523 14.69374831389949 MIDORI II (ADEOS-II) 1 27597U 02056A 10077.17206484 .00000039 00000-0 33794-4 0 960 2 27597 98.4358 137.3218 0000734 132.2104 227.9141 14.26198109377847 ICESAT 1 27642U 03002A 10077.23474821 .00000486 00000-0 50659-4 0 5119 2 27642 93.9952 71.8814 0002934 48.2773 311.8702 14.90882959390490 ORBVIEW 3 1 27838U 03030A 10077.37104527 .00004775 00000-0 11424-3 0 3989 2 27838 97.0183 131.3142 0002180 105.1836 254.9688 15.41918152377633 IRS-P6 (RESOURCESAT-1) 1 28051U 03046A 10077.12809197 -.00000038 00000-0 24530-5 0 5268 2 28051 98.6824 154.1504 0003172 84.4988 25.5131 14.21646693333030 CBERS 2 (ZY 1B) 1 28057U 03049A 10077.11845119 .00000026 00000-0 23803-4 0 767 2 28057 98.2427 122.5925 0000486 215.8369 144.2783 14.34928247335682 TANSUO 1 1 28220U 04012A 10076.14229063 .00000444 00000-0 52874-4 0 4753 2 28220 97.4660 103.5451 0012273 12.9877 347.1646 14.88793999321022 FORMOSAT-2 (ROCSAT 2) 1 28254U 04018A 10077.13343920 -.00000043 00000-0 86237-6 0 5888 2 28254 99.0923 140.0148 0001485 173.3765 273.1659 14.00727443297871 AURA 1 28376U 04026A 10077.05942628 .00000162 00000-0 46081-4 0 7506 2 28376 98.1989 21.9904 0001326 66.0075 294.1286 14.57121217301695 PARASOL 1 28498U 04049G 10076.69354578 .00000155 00000-0 43686-4 0 6572 2 28498 98.3055 23.4555 0001134 100.7085 259.4226 14.58343529278929 IRS-P5 (CARTOSAT-1) 1 28649U 05017A 10077.14458788 .00000262 00000-0 39040-4 0 4931 2 28649 97.9244 151.0582 0000666 81.5846 278.5453 14.82632237263450 TOPSAT 1 28891U 05043B 10077.07230503 .00000118 00000-0 34180-4 0 9108 2 28891 98.0189 323.4092 0016557 207.1637 152.8710 14.59800175233820 SINAH 1 1 28893U 05043D 10077.19564408 .00000133 00000-0 37075-4 0 7153 2 28893 98.0219 324.7046 0015078 206.1792 153.8650 14.60103628233899 ALOS (DAICHI) 1 28931U 06002A 10077.08816516 .00000158 00000-0 42836-4 0 6472 2 28931 98.1596 153.3255 0001220 95.5826 264.5520 14.59569018220856 EROS B 1 29079U 06014A 10077.14453862 .00003452 00000-0 17007-3 0 3914 2 29079 97.4192 197.6233 0010374 170.4124 313.3908 15.18572654216084 RSS-1 (YAOGAN 1) 1 29092U 06015A 10077.11594601 -.00000076 00000-0 -32971-5 0 3611 2 29092 97.8614 70.2885 0001625 88.2678 271.8706 14.80274753210298 RESURS-DK 1 1 29228U 06021A 10077.13158304 .00003049 00000-0 67983-4 0 2257 2 29228 69.9345 1.0979 0155679 92.2718 269.6278 15.33131225210301 ARIRANG 2 (KOMPSAT-2) 1 29268U 06031A 10077.12615755 .00001768 00000-0 36305-3 0 559 2 29268 98.0117 326.7444 0017440 10.4190 349.7429 14.61747708194104 LAPAN-TUBSAT 1 29709U 07001A 10077.10253045 .00000049 00000-0 13122-4 0 5352 2 29709 97.7720 129.8287 0014575 109.8906 250.3900 14.80288349172009 CARTOSAT-2 (IRS-P7) 1 29710U 07001B 10077.11422678 -.00000113 00000-0 -83301-5 0 5301 2 29710 97.9728 138.2382 0002118 92.1879 267.9601 14.78625492171860 HAIYANG-1B 1 31113U 07010A 10077.11944475 .00000036 00000-0 30960-4 0 2676 2 31113 98.5117 150.0727 0013232 344.3406 15.7383 14.29458644153079 COSMO-SKYMED 1 1 31598U 07023A 10077.08431075 .00000153 00000-0 25794-4 0 1016 2 31598 97.8640 266.1481 0001356 91.3937 268.7437 14.82169165150193 TERRASAR-X 1 31698U 07026A 10077.14222753 -.00000819 00000-0 -35802-4 0 738 2 31698 97.4455 85.6300 0001560 82.9020 340.0096 15.19143466152862 WORLDVIEW-1 (WV-1) 1 32060U 07041A 10077.12971045 .00001624 00000-0 69154-4 0 7863 2 32060 97.4023 156.9071 0000943 59.3005 28.8056 15.24412134138823 CBERS 2B 1 32062U 07042A 10077.13881813 .00000044 00000-0 28598-4 0 7761 2 32062 98.4534 154.6158 0026073 250.0155 109.8238 14.38462159130798 COSMO-SKYMED 2 1 32376U 07059A 10077.11807334 -.00000018 00000-0 43202-5 0 5143 2 32376 97.8639 266.1825 0001352 87.4458 272.6873 14.82168707122949 RADARSAT-2 1 32382U 07061A 10077.12941392 .00000097 00000-0 54506-4 0 4904 2 32382 98.5799 85.8818 0001093 92.0981 355.2188 14.29981597117845 CARTOSAT-2A 1 32783U 08021A 10077.13918317 .00000186 00000-0 32355-4 0 967 2 32783 97.9089 140.6757 0014388 244.9149 115.0613 14.78701146101811 IMS-1 1 32786U 08021D 10076.97595990 .00000228 00000-0 36942-4 0 6508 2 32786 97.9089 141.8151 0011928 216.2279 143.8098 14.80065380101887 JASON 2 (OSTM) 1 33105U 08032A 10076.12736002 -.00000050 00000-0 46041-4 0 5856 2 33105 66.0398 223.9771 0007458 271.7225 88.2937 12.80930961 81305 RAPIDEYE 2 1 33312U 08040A 10077.08579558 .00000127 00000-0 23810-4 0 7510 2 33312 97.9549 165.1321 0011165 310.2150 49.8085 14.79897655 83716 RAPIDEYE 5 1 33313U 08040B 10077.11161725 .00000125 00000-0 23555-4 0 7411 2 33313 97.9543 164.5084 0018468 170.1337 190.0235 14.79895393 83660 RAPIDEYE 1 1 33314U 08040C 10077.09904964 .00000111 00000-0 21786-4 0 7867 2 33314 97.9542 165.2383 0024000 319.0663 40.8743 14.79895540 83700 RAPIDEYE 3 1 33315U 08040D 10077.13842159 -.00001264 00000-0 -16051-3 0 7231 2 33315 97.9523 164.6511 0010687 249.5768 110.4400 14.79889174 83671 RAPIDEYE 4 1 33316U 08040E 10077.12456998 -.00000053 00000-0 -35150-7 0 7132 2 33316 97.9522 164.5066 0012132 187.6474 172.4558 14.79894116 83661 HJ-1A 1 33320U 08041A 10077.08972605 .00000074 00000-0 18439-4 0 6904 2 33320 97.9515 153.5638 0023547 281.5564 78.3007 14.75235845 82270 HJ-1B 1 33321U 08041B 10077.12183642 .00000034 00000-0 12683-4 0 7299 2 33321 97.9532 153.6368 0041937 293.9453 65.7381 14.75245916 82262 GEOEYE 1 1 33331U 08042A 10077.08806659 -.00000431 00000-0 -72547-4 0 7014 2 33331 98.0778 152.2182 0009645 301.1293 58.8987 14.64420548 81561 THEOS 1 33396U 08049A 10077.11107670 .00000070 00000-0 53388-4 0 4862 2 33396 98.7069 145.6986 0000890 93.8650 352.6577 14.20037969 75651 COSMO-SKYMED 3 1 33412U 08054A 10077.10540709 -.00000949 00000-0 -11275-3 0 5394 2 33412 97.8635 266.1695 0001281 91.4527 268.6784 14.82162503 75407 YAOGAN 4 1 33446U 08061A 10077.11646986 -.00000700 00000-0 -95424-4 0 4454 2 33446 97.8768 156.5720 0012999 221.6939 138.3298 14.75500242 69598 YAOGAN 5 1 33456U 08064A 10077.15008171 .00002217 00000-0 91137-4 0 4348 2 33456 97.3438 152.6782 0006161 118.0608 320.6009 15.25195895 69809 YAOGAN 6 1 34839U 09021A 10077.15125089 .00001448 00000-0 74074-4 0 405 2 34839 97.5999 152.9392 0001473 164.4123 227.9271 15.18267424 50076 RAZAKSAT 1 35578U 09037A 10077.01484741 .00000758 00000-0 38364-4 0 7537 2 35578 8.9851 148.1913 0016504 197.1368 162.8332 14.64961929 36251 DEIMOS-1 1 35681U 09041A 10077.09434674 .00000081 00000-0 22082-4 0 7141 2 35681 98.1090 335.6712 0001448 108.8359 251.3014 14.69345942 34000 OCEANSAT 2 1 35931U 09051A 10076.89759475 .00006029 00000-0 15388-2 0 3329 2 35931 98.3261 174.9461 0004706 32.0995 327.9908 14.50862239 25464 WORLDVIEW-2 1 35946U 09055A 10077.15233608 -.00000060 00000-0 -51443-5 0 4916 2 35946 98.5520 154.2871 0002469 76.6969 283.4522 14.37258894 23046 SMOS 1 36036U 09059A 10076.93026853 -.00000043 00000-0 00000+0 0 1158 2 36036 98.4414 265.3896 0000889 87.4076 272.7221 14.39757129 19557 YAOGAN 7 1 36110U 09069A 10077.09667361 -.00000051 00000-0 00000+0 0 3011 2 36110 97.8481 219.1700 0026459 348.3623 11.6957 14.76197986 14568